MST,Max TemperatureF,Mean TemperatureF,Min TemperatureF,Max Dew PointF,MeanDew PointF,Min DewpointF,Max Humidity, Mean Humidity, Min Humidity, Max Sea Level PressureIn, Mean Sea Level PressureIn, Min Sea Level PressureIn, Max VisibilityMiles, Mean VisibilityMiles, Min VisibilityMiles, Max Wind SpeedMPH, Mean Wind SpeedMPH, Max Gust SpeedMPH,PrecipitationIn, CloudCover, Events, WindDirDegrees
2012-10-1,98,88,78,78,71,61,94,63,30,29.90,29.81,29.73,19,11,2,12,5,,0.00,0,,217
2012-10-2,96,86,77,78,74,70,94,70,47,29.96,29.85,29.79,19,10,2,14,5,,0.00,1,,232
2012-10-3,101,90,78,76,70,64,88,60,30,30.02,29.94,29.86,19,10,2,10,5,,0.00,0,,179
2012-10-4,100,88,77,73,68,57,88,57,25,30.06,29.98,29.92,19,11,2,10,5,,0.00,0,,250
2012-10-5,100,86,73,70,62,54,83,47,19,30.02,29.94,29.87,19,10,2,10,4,,0.00,0,,263
2012-10-6,97,84,72,74,67,61,83,56,22,29.96,29.87,29.80,19,11,2,10,5,,0.00,0,,256
2012-10-7,100,86,73,72,59,39,88,47,14,29.96,29.86,29.79,19,10,2,10,6,,0.00,0,,194
2012-10-8,97,85,73,69,60,46,94,51,15,30.03,29.92,29.86,19,10,2,12,6,,0.00,0,,193
2012-10-9,98,86,73,69,62,50,88,55,17,30.04,29.95,29.87,19,10,2,12,7,,0.00,2,,195
2012-10-10,97,85,73,70,63,52,88,56,18,30.02,29.93,29.85,19,11,2,12,5,,0.00,0,,178
2012-10-11,95,84,73,71,65,54,88,63,28,30.02,29.93,29.86,19,11,2,13,7,,0.00,2,,196
2012-10-12,92,81,70,74,69,64,88,66,47,30.06,29.96,29.85,19,10,2,21,7,,0.00,1,,1
2012-10-13,89,83,77,72,66,63,74,56,41,30.04,29.96,29.89,19,11,2,18,9,,0.00,3,,11
2012-10-14,86,77,68,74,69,63,88,67,52,30.02,29.93,29.87,19,10,2,16,5,,0.04,7,Rain,19
2012-10-15,82,78,73,74,70,68,94,82,68,29.98,29.88,29.79,16,8,2,9,3,,0.16,8,Rain,15
2012-10-16,85,80,75,75,72,70,94,81,57,29.77,29.67,29.60,16,7,0,32,8,32,0.31,8,Rain,167
2012-10-17,101,86,71,72,68,63,94,67,37,30.01,29.89,29.77,19,10,2,8,5,,0.00,3,,202
2012-10-18,92,80,69,74,69,64,94,72,49,30.02,29.94,29.87,19,10,2,15,4,,0.00,1,,333
2012-10-19,89,78,67,74,67,61,94,72,45,29.94,29.88,29.81,19,10,0,58,7,,0.00,0,,227
2012-10-20,93,78,64,70,66,61,88,66,39,29.96,29.85,29.79,19,11,2,14,4,,0.00,0,,253
2012-10-21,92,80,69,76,67,61,94,64,40,29.96,29.87,29.81,19,11,2,12,3,,0.00,0,,290
2012-10-22,88,78,69,75,68,63,94,70,50,29.98,29.88,29.83,19,10,2,13,3,,0.00,0,,299
2012-10-23,88,77,66,75,65,61,88,65,40,29.95,29.85,29.78,19,11,2,10,5,,0.00,0,,305
2012-10-24,90,78,66,71,64,46,94,64,25,30.01,29.87,29.81,19,10,2,14,6,,0.00,0,,281
2012-10-25,89,78,66,71,66,52,94,68,49,30.01,29.88,29.80,19,11,2,14,4,,0.00,1,,5
2012-10-26,87,76,65,69,65,59,94,67,41,29.94,29.85,29.78,19,10,2,13,4,,0.00,0,,356
2012-10-27,86,77,68,69,66,61,88,67,47,30.00,29.87,29.81,19,10,2,14,4,,0.00,3,,327
2012-10-28,88,78,68,69,66,61,88,66,46,30.11,29.95,29.88,19,10,2,12,4,,0.00,2,,316
2012-10-29,91,80,69,70,66,59,88,67,47,30.09,30.01,29.94,19,10,2,14,4,,0.00,0,,282
2012-10-30,90,78,66,67,61,54,94,58,29,30.07,29.98,29.89,19,11,2,12,4,,0.00,0,,275
2012-10-31,91,78,64,70,58,48,88,54,23,30.04,29.95,29.89,19,10,2,12,4,,0.00,0,,233